Belen, NM

5:13 AM MDT on July 21, 2017 (GMT -0600)
Belen

Weather History for KE80 - January, 2014

Change the Weather History Date:

Sunday, January 12, 2014

  Actual Average (KABQ) Record (KABQ)
Temperature  
Mean Temperature 44 °F -  
Max Temperature 63 °F 45 °F 62 °F (1953)
Min Temperature 24 °F 23 °F -1 °F (1963)
Degree Days  
Heating Degree Days 22    
Moisture  
Dew Point 15 °F    
Average Humidity 41    
Maximum Humidity 75    
Minimum Humidity 13    
Precipitation  
Precipitation 0.00 in - - ()
Sea Level Pressure  
Sea Level Pressure 30.00 in    
Wind  
Wind Speed 8 mph (West)    
Max Wind Speed 30 mph    
Max Gust Speed 39 mph    
Visibility 10 miles    
Events      
Averages and records for this station are not official NWS values.
T = Trace of Precipitation, MM = Missing Value Source: NWS Daily Summary

Daily Weather History Graph

Daily Weather History Graph

Search for Another Location

Airport or City:

Trip Planner

Search our weather history database for the weather conditions in past years. The results will help you decide how hot, cold, wet, or windy it might be!

Date:

Astronomy

Jan. 12, 2014 Rise Set
Actual Time 7:14 AM MST 5:17 PM MST
Civil Twilight 6:47 AM MST 5:44 PM MST
Nautical Twilight 6:16 AM MST 6:15 PM MST
Astronomical Twilight 5:45 AM MST 6:46 PM MST
Moon 2:46 PM MST (1/12) 4:16 AM MST (1/12)
Length of Visible Light 10h 57m
Length of Day
10h 02m
Waxing Gibbous, 90% of the Moon is Illuminated
Jan 12
Waxing Gibbous
Jan 15
Full
Jan 23
Last Quarter
Jan 30
New
Feb 6
First Quarter

Hourly Weather History & Observations

Time (MST) Temp. Windchill Dew Point Humidity Pressure Visibility Wind Dir Wind Speed Gust Speed Precip Events Conditions
12:15 AM 28.6 °F 23.5 °F 18.3 °F 65% 30.03 in 10.0 mi NW 4.6 mph - N/A   Clear
12:35 AM 25.9 °F - 16.3 °F 67% 30.02 in 10.0 mi Calm Calm - N/A   Clear
12:55 AM 24.6 °F - 15.6 °F 69% 30.01 in 10.0 mi Calm Calm - N/A   Clear
1:15 AM 27.9 °F 24.0 °F 17.6 °F 65% 30.00 in 10.0 mi SSW 3.5 mph - N/A   Clear
1:35 AM 30.6 °F - 17.6 °F 59% 30.00 in 10.0 mi Calm Calm - N/A   Clear
1:55 AM 29.8 °F - 18.5 °F 63% 29.99 in 10.0 mi Calm Calm - N/A   Clear
2:15 AM 25.0 °F 17.1 °F 16.0 °F 69% 29.99 in 10.0 mi SSE 6.9 mph - N/A   Clear
2:35 AM 26.2 °F 18.6 °F 17.4 °F 69% 29.98 in 10.0 mi South 6.9 mph - N/A   Clear
2:55 AM 27.1 °F 19.7 °F 17.8 °F 68% 29.97 in 10.0 mi South 6.9 mph - N/A   Clear
3:15 AM 30.0 °F 23.2 °F 18.9 °F 63% 29.96 in 10.0 mi South 6.9 mph - N/A   Clear
3:35 AM 30.2 °F 23.4 °F 19.0 °F 63% 29.96 in 10.0 mi South 6.9 mph - N/A   Clear
3:55 AM 31.1 °F 26.4 °F 19.0 °F 61% 29.95 in 10.0 mi SSW 4.6 mph - N/A   Clear
4:15 AM 28.8 °F - 18.7 °F 66% 29.95 in 10.0 mi Calm Calm - N/A   Clear
4:35 AM 31.5 °F 22.3 °F 19.4 °F 61% 29.93 in 10.0 mi South 11.5 mph - N/A   Clear
4:55 AM 34.2 °F 29.0 °F 20.1 °F 57% 29.94 in 10.0 mi SSW 5.8 mph - N/A   Clear
5:15 AM 34.7 °F - 19.6 °F 54% 29.95 in 10.0 mi Calm Calm - N/A   Clear
5:35 AM 29.7 °F 22.8 °F 18.1 °F 62% 29.95 in 10.0 mi NW 6.9 mph - N/A   Clear
5:55 AM 27.0 °F 19.5 °F 18.3 °F 70% 29.96 in 10.0 mi North 6.9 mph - N/A   Clear
6:15 AM 28.6 °F - 18.1 °F 65% 29.96 in 10.0 mi Calm Calm - N/A   Clear
6:35 AM 27.1 °F - 18.5 °F 70% 29.96 in 10.0 mi Calm Calm - N/A   Clear
6:55 AM 28.4 °F - 18.7 °F 67% 29.97 in 10.0 mi Calm Calm - N/A   Clear
7:15 AM 24.8 °F 17.9 °F 18.0 °F 75% 29.96 in 10.0 mi South 5.8 mph - N/A   Clear
7:35 AM 29.3 °F 24.3 °F 19.4 °F 67% 29.96 in 10.0 mi South 4.6 mph - N/A   Clear
7:55 AM 32.9 °F 28.5 °F 19.9 °F 59% 29.97 in 10.0 mi SSE 4.6 mph - N/A   Clear
8:15 AM 32.0 °F 27.5 °F 20.3 °F 62% 29.98 in 10.0 mi SSE 4.6 mph - N/A   Clear
8:35 AM 32.5 °F 28.1 °F 20.5 °F 61% 29.99 in 10.0 mi SE 4.6 mph - N/A   Clear
8:55 AM 33.3 °F 25.7 °F 20.7 °F 60% 29.98 in 10.0 mi SSE 9.2 mph - N/A   Clear
9:15 AM 37.4 °F 28.9 °F 20.8 °F 51% 29.97 in 10.0 mi South 13.8 mph - N/A   Clear
9:35 AM 46.8 °F - 20.1 °F 35% 29.97 in 10.0 mi South 10.4 mph - N/A   Clear
9:55 AM 48.4 °F - 19.6 °F 32% 29.95 in 10.0 mi SSE 9.2 mph - N/A   Clear
10:15 AM 51.8 °F - 20.5 °F 29% 29.95 in 10.0 mi South 12.7 mph - N/A   Clear
10:35 AM 52.9 °F - 21.0 °F 29% 29.95 in 10.0 mi SSW 8.1 mph - N/A   Clear
10:55 AM 58.5 °F - 21.4 °F 24% 29.94 in 10.0 mi SW 16.1 mph - N/A   Clear
11:15 AM 55.9 °F - 20.7 °F 25% 29.95 in 10.0 mi North 8.1 mph 21.9 mph N/A   Clear
11:35 AM 55.8 °F - 21.0 °F 26% 29.94 in 10.0 mi Calm Calm - N/A   Clear
11:55 AM 60.3 °F - 18.9 °F 20% 29.91 in 10.0 mi WNW 6.9 mph - N/A   Clear
12:15 PM 60.4 °F - 17.2 °F 19% 29.90 in 10.0 mi West 20.7 mph 32.2 mph N/A   Clear
12:35 PM 61.5 °F - 18.1 °F 19% 29.89 in 10.0 mi West 18.4 mph 26.5 mph N/A   Clear
12:55 PM 62.1 °F - 16.3 °F 17% 29.88 in 10.0 mi West 25.3 mph 36.8 mph N/A   Clear
1:15 PM 62.2 °F - 16.3 °F 17% 29.87 in 10.0 mi WSW 27.6 mph 33.4 mph N/A   Clear
1:35 PM 63.1 °F - 16.7 °F 17% 29.87 in 10.0 mi West 23.0 mph 28.8 mph N/A   Clear
1:55 PM 63.3 °F - 16.2 °F 16% 29.87 in 10.0 mi West 19.6 mph 36.8 mph N/A   Clear
2:15 PM 62.6 °F - 10.8 °F 13% 29.88 in 10.0 mi West 29.9 mph 35.7 mph N/A   Clear
2:35 PM 62.2 °F - 9.5 °F 13% 29.88 in 10.0 mi WNW 29.9 mph 36.8 mph N/A   Clear
2:55 PM 60.8 °F - 10.2 °F 14% 29.89 in 10.0 mi WNW 27.6 mph 39.1 mph N/A   Clear
3:15 PM 59.9 °F - 10.8 °F 14% 29.89 in 10.0 mi West 28.8 mph 39.1 mph N/A   Clear
3:35 PM 59.2 °F - 11.1 °F 15% 29.91 in 10.0 mi West 25.3 mph 39.1 mph N/A   Clear
3:55 PM 57.7 °F - 10.8 °F 16% 29.92 in 10.0 mi West 28.8 mph 38.0 mph N/A   Clear
4:15 PM 57.7 °F - 12.2 °F 17% 29.93 in 10.0 mi West 21.9 mph 35.7 mph N/A   Scattered Clouds
4:35 PM 55.0 °F - 16.9 °F 22% 29.94 in 10.0 mi NNW 19.6 mph 26.5 mph N/A   Scattered Clouds
4:55 PM 52.0 °F - 18.0 °F 26% 29.97 in 10.0 mi NNW 19.6 mph 27.6 mph N/A   Scattered Clouds
5:15 PM 49.1 °F - 20.1 °F 32% 29.99 in 10.0 mi NNW 15.0 mph 27.6 mph N/A   Clear
5:35 PM 46.2 °F 39.0 °F 19.9 °F 35% 30.02 in 10.0 mi NNW 18.4 mph 24.2 mph N/A   Clear
5:55 PM 45.3 °F 38.4 °F 18.9 °F 35% 30.03 in 10.0 mi NW 16.1 mph - N/A   Clear
6:15 PM 44.2 °F 36.2 °F 17.8 °F 35% 30.05 in 10.0 mi NNW 19.6 mph 26.5 mph N/A   Clear
6:35 PM 43.5 °F 35.5 °F 15.6 °F 33% 30.06 in 10.0 mi NNW 18.4 mph 24.2 mph N/A   Clear
6:55 PM 42.1 °F 35.2 °F 13.8 °F 32% 30.07 in 10.0 mi NNW 12.7 mph - N/A   Clear
7:15 PM 41.4 °F 33.6 °F 10.2 °F 28% 30.08 in 10.0 mi NNW 15.0 mph - N/A   Clear
7:35 PM 39.9 °F 31.8 °F 7.9 °F 27% 30.09 in 10.0 mi NW 15.0 mph - N/A   Clear
7:55 PM 39.7 °F 31.9 °F 7.3 °F 26% 30.11 in 10.0 mi NW 13.8 mph - N/A   Clear
8:15 PM 39.2 °F 31.6 °F 6.4 °F 26% 30.12 in 10.0 mi NW 12.7 mph - N/A   Clear
8:35 PM 38.3 °F 30.5 °F 6.1 °F 26% 30.12 in 10.0 mi NW 12.7 mph - N/A   Clear
8:55 PM 36.0 °F 28.0 °F 6.4 °F 29% 30.12 in 10.0 mi WNW 11.5 mph - N/A   Clear
9:15 PM 33.4 °F 25.9 °F 6.3 °F 32% 30.13 in 10.0 mi NW 9.2 mph - N/A   Clear
9:35 PM 30.9 °F 22.8 °F 5.7 °F 35% 30.15 in 10.0 mi WNW 9.2 mph - N/A   Clear
9:55 PM 31.1 °F 22.4 °F 5.9 °F 35% 30.16 in 10.0 mi NW 10.4 mph - N/A   Clear
10:15 PM 33.1 °F 24.4 °F 5.9 °F 32% 30.16 in 10.0 mi NW 11.5 mph - N/A   Clear
10:35 PM 32.7 °F 25.7 °F 5.7 °F 32% 30.18 in 10.0 mi NW 8.1 mph - N/A   Clear
10:55 PM 32.0 °F - 5.2 °F 32% 30.19 in 10.0 mi Calm Calm - N/A   Clear
11:15 PM 28.2 °F 23.1 °F 5.0 °F 37% 30.20 in 10.0 mi ESE 4.6 mph - N/A   Clear
11:35 PM 32.0 °F - 5.2 °F 32% 30.21 in 10.0 mi Calm Calm - N/A   Clear
11:55 PM 31.8 °F 26.2 °F 5.4 °F 33% 30.22 in 10.0 mi SE 5.8 mph - N/A   Clear